Showing default

TROOP-F3, 68429

Orbit data source: Space-Track

TROOP-F3, 68429 is a payload satellite owned by NearSpaceLaunch (US) in SSO that was launched on Mon, 30 Mar 2026 UTC via an FALCON 9 launch vehicle from the Air Force Western Test Range (AFWTR). Payload-class satellites include a variety of spacecraft equipped with specific instruments for various scientific and technological missions. These include communications satellites like Starlink; space stations such as the ISS; scientific satellites like the Hubble; Earth observation satellites from companies like Planet Labs, Umbra, and HawkEye 360; GPS; miniature CubeSats for education and research; and military/defense satellites.

Loading next visibility...
Identifier
68429, 2026-067P
Orbit
SSO
Country
Flag of USUS
Related business
Manufacturer
NearSpaceLaunch
Mission
Operational spacecraft
Bus & Motor
CUBESAT 6U, Unknown motor
Mass
10 kg wet, ~10 kg dry
Launch date (UTC)
2026-03-30 (3 months ago)
Launch vehicle
FALCON 9
Launch site
Air Force Western Test Range (AFWTR)
Object type
Payload
Rocket body
Debris
Shape & HBR
Unknown shape, 1.1 m
Radar Cross Section
Medium (>0.1 m² and <1 m²)

Expand to show TLE details & history
Last TLE update: 2 days ago

TLE from 2 days ago
0 TROOP-F3
1 68429U 26067P   26170.87794610  .00010925  00000-0  51638-3 0  9991
2 68429  97.4514 129.3385 0004005  57.9467 302.2156 15.19566835 12358
Epoch: 2026-06-19T21:04Z
TLE epoch observation values (Epoch: 2026-06-19T21:04:14.543Z)
Latitude
-0.00003°
Longitude
-94.8227°
Altitude
508.768 km
Speed
7.61 km/s
True Right ascension
08h 37m 21s
True Declination
0° 00' 00"
Sunlit
Object was in daylight at epoch
Visualization orbit readout
Latitude
Unknown
Longitude
Unknown
Altitude
Unknown
Speed
Unknown
Apparent Right ascension
Unknown
Apparent Declination
Unknown
Sunlit
N/A
Visualization observer readout
Local Sidereal Time
12:19:02
Azimuth
Unknown
Elevation
Unknown
Doppler factor
Unknown
Orbital elements
Apogee altitude
506.873 km
Perigee altitude
501.361 km
Semi-major axis
6,882.254 km
Eccentricity
0.0004
Inclination
97.4514°
RAAN
129.3385°
Arg. of periapsis
57.9467°
True anomaly
302.17676°
Mean anomaly
302.2156°
Eccentric anomaly
302.19618°
Mean motion
3.80143 °/min
Orbital period
94.7 mins
BSTAR
0.00051638
Loading maneuver chart data...
Computing Atmospheric mass density...
Loading historical data...
Loading historical data...
Loading historical data...
Loading historical data...
Loading historical data...
Loading historical data...
Loading historical data...

Documentation

Showing up to 5 results
|